This is the latest recevied weather packets stored in our database for station/object KB3VSP. If no packets are shown the sender has not sent any weather packets the latest 10 day(s).
| Time | Temp. | Humidity | Pressure | Rain* | Wind** | Luminosity | Snow |
|---|---|---|---|---|---|---|---|
| 1777769712 | 4.44° C | 77% | 1017.2 hPa | 0 mm | - | 0 W/m² | - |
| 1777769409 | 4.44° C | 78% | 1017.1 hPa | 0 mm | - | 0 W/m² | - |
| 1777769105 | 4.44° C | 78% | 1017 hPa | 0 mm | - | 0 W/m² | - |
| 1777768803 | 4.44° C | 78% | 1016.8 hPa | 0 mm | - | 0 W/m² | - |
| 1777768500 | 4.44° C | 76% | 1016.9 hPa | 0 mm | - | 0 W/m² | - |
| 1777768197 | 4.44° C | 77% | 1016.6 hPa | 0 mm | - | 0 W/m² | - |
| 1777767894 | 4.44° C | 78% | 1016.5 hPa | 0 mm | - | 0 W/m² | - |
| 1777767590 | 4.44° C | 80% | 1016.9 hPa | 0 mm | - | 0 W/m² | - |
| 1777767287 | 4.44° C | 78% | 1016.8 hPa | 0 mm | - | 0 W/m² | - |
| 1777766984 | 4.44° C | 75% | 1016.4 hPa | 0 mm | - | 0 W/m² | - |
| 1777766681 | 5° C | 76% | 1016.4 hPa | 0 mm | - | 0 W/m² | - |
| 1777766379 | 5° C | 74% | 1016.5 hPa | 0 mm | - | 0 W/m² | - |
| 1777766075 | 5° C | 74% | 1016.3 hPa | 0 mm | - | 1 W/m² | - |
| 1777765773 | 5° C | 75% | 1016.4 hPa | 0 mm | - | 3 W/m² | - |
| 1777765469 | 5° C | 74% | 1016.3 hPa | 0 mm | - | 7 W/m² | - |
| 1777765167 | 5° C | 75% | 1016.4 hPa | 0 mm | - | 10 W/m² | - |
| 1777764861 | 5° C | 76% | 1016.2 hPa | 0 mm | - | 11 W/m² | - |
| 1777764559 | 5° C | 76% | 1016.6 hPa | 0 mm | - | 12 W/m² | - |
| 1777764255 | 5° C | 77% | 1016.4 hPa | 0 mm | - | 15 W/m² | - |
| 1777763952 | 5° C | 78% | 1016.3 hPa | 0 mm | - | 16 W/m² | - |
| 1777763650 | 5° C | 77% | 1016.2 hPa | 0 mm | - | 15 W/m² | - |
| 1777763348 | 5° C | 76% | 1016.4 hPa | 0 mm | - | 15 W/m² | - |
| 1777763046 | 5° C | 77% | 1016.4 hPa | 0 mm | - | 15 W/m² | - |
| 1777762743 | 5° C | 77% | 1016.4 hPa | 0 mm | - | 18 W/m² | - |
| 1777762439 | 5° C | 76% | 1016.4 hPa | 0 mm | - | 27 W/m² | - |
* Rain latest hour (hover to see other rain measurements)
** Current wind speed in m/s (hover to see current wind gust speed)